User: anonymous   Login
Location: Lawrence
(38.9720°N, 95.2350°W)
Time: 04:04:59
(UTC-05:00)
Language:

JAS-1B - Orbit

View from above orbital plane
View from above orbital plane
View from above satellite
View from above satellite

Ground track
Ground track

The orbit data is extracted from the following two-line orbital elements,

1 20480U 90013C   14302.83178640  .00000000  00000-0  67700-4 0  8874
2 20480 099.0632 240.7381 0540779 048.9321 008.9835 12.83398295158400
Epoch (UTC): 29 October 2014 19:57:46
Eccentricity: 0.0540779
inclination: 99.0632°
perigee height: 911 km
apogee height: 1744 km
right ascension of ascending node: 240.7381°
argument of perigee: 48.9321°
revolutions per day: 12.83398295
mean anomaly at epoch: 8.9835°
orbit number at epoch: 15840

The dashed part of the orbit path shows where the satellite is in the earth's shadow,  

DLR